Wetterdaten: Samstag, 12.03.2016
Datum Zeit Temperatur Luftfeuchte Luftdruck Regen Wind Richtung Richtung Sonnenschein ET UV Solar Taupunkt Windchill Windben
12.03.2016 00:00 3,6 C 71 % 1029,3 hPa 0,0 l/m 4,6 km/h (1 Bft) O 90 0 min 0,000 mm 0,0 UV-I 0 W/m -1,2 C 3,6 C 17,7 km/h (3 Bft)
12.03.2016 00:05 3,6 C 71 % 1029,3 hPa 0,0 l/m 7,5 km/h (2 Bft) O 80 0 min 0,000 mm 0,0 UV-I 0 W/m -1,2 C 2,6 C 16,1 km/h (3 Bft)
12.03.2016 00:10 3,6 C 71 % 1029,2 hPa 0,0 l/m 9,5 km/h (2 Bft) NO 46 0 min 0,000 mm 0,0 UV-I 0 W/m -1,2 C 0,9 C 16,1 km/h (3 Bft)
12.03.2016 00:15 3,6 C 71 % 1029,2 hPa 0,0 l/m 8,3 km/h (2 Bft) O-NO 57 0 min 0,000 mm 0,0 UV-I 0 W/m -1,2 C 1,9 C 17,7 km/h (3 Bft)
12.03.2016 00:20 3,6 C 72 % 1029,3 hPa 0,0 l/m 7,5 km/h (2 Bft) O-NO 78 0 min 0,000 mm 0,0 UV-I 0 W/m -1,0 C 2,6 C 12,9 km/h (3 Bft)
12.03.2016 00:25 3,5 C 72 % 1029,3 hPa 0,0 l/m 6,9 km/h (2 Bft) O-NO 61 0 min 0,000 mm 0,0 UV-I 0 W/m -1,1 C 3,0 C 16,1 km/h (3 Bft)
12.03.2016 00:30 3,5 C 72 % 1029,3 hPa 0,0 l/m 2,3 km/h (1 Bft) O-NO 57 0 min 0,000 mm 0,0 UV-I 0 W/m -1,1 C 3,5 C 11,3 km/h (2 Bft)
12.03.2016 00:35 3,5 C 72 % 1029,3 hPa 0,0 l/m 2,0 km/h (1 Bft) NO 38 0 min 0,000 mm 0,0 UV-I 0 W/m -1,1 C 3,5 C 12,9 km/h (3 Bft)
12.03.2016 00:40 3,5 C 73 % 1029,2 hPa 0,0 l/m 1,6 km/h (1 Bft) NO 34 0 min 0,000 mm 0,0 UV-I 0 W/m -0,9 C 3,5 C 12,9 km/h (3 Bft)
12.03.2016 00:45 3,4 C 73 % 1029,2 hPa 0,0 l/m 0,0 km/h (0 Bft) O-NO 69 0 min 0,000 mm 0,0 UV-I 0 W/m -1,0 C 3,4 C 1,6 km/h (1 Bft)
12.03.2016 00:50 3,4 C 73 % 1029,2 hPa 0,0 l/m 0,7 km/h (0 Bft) O 98 0 min 0,000 mm 0,0 UV-I 0 W/m -1,0 C 3,4 C 9,7 km/h (2 Bft)
12.03.2016 00:55 3,4 C 73 % 1029,2 hPa 0,0 l/m 0,2 km/h (0 Bft) O 82 0 min 0,000 mm 0,0 UV-I 0 W/m -1,0 C 3,4 C 3,2 km/h (1 Bft)
12.03.2016 01:00 3,4 C 73 % 1029,2 hPa 0,0 l/m 0,2 km/h (0 Bft) O-NO 61 0 min 0,000 mm 0,0 UV-I 0 W/m -1,0 C 3,4 C 4,8 km/h (1 Bft)
12.03.2016 01:05 3,4 C 73 % 1029,0 hPa 0,0 l/m 0,1 km/h (0 Bft) O-NO 65 0 min 0,025 mm 0,0 UV-I 0 W/m -1,0 C 3,4 C 4,8 km/h (1 Bft)
12.03.2016 01:10 3,4 C 73 % 1029,0 hPa 0,0 l/m 0,1 km/h (0 Bft) N-NO 20 0 min 0,000 mm 0,0 UV-I 0 W/m -1,0 C 3,4 C 3,2 km/h (1 Bft)
12.03.2016 01:15 3,4 C 73 % 1028,9 hPa 0,0 l/m 0,7 km/h (0 Bft) O-NO 71 0 min 0,000 mm 0,0 UV-I 0 W/m -1,0 C 3,4 C 8,0 km/h (2 Bft)
12.03.2016 01:20 3,4 C 73 % 1028,8 hPa 0,0 l/m 0,4 km/h (0 Bft) O-SO 109 0 min 0,000 mm 0,0 UV-I 0 W/m -1,0 C 3,4 C 8,0 km/h (2 Bft)
12.03.2016 01:25 3,3 C 73 % 1028,8 hPa 0,0 l/m 0,5 km/h (0 Bft) NO 42 0 min 0,000 mm 0,0 UV-I 0 W/m -1,1 C 3,3 C 6,4 km/h (2 Bft)
12.03.2016 01:30 3,3 C 73 % 1028,6 hPa 0,0 l/m 1,9 km/h (1 Bft) O 82 0 min 0,000 mm 0,0 UV-I 0 W/m -1,1 C 3,3 C 11,3 km/h (2 Bft)
12.03.2016 01:35 3,3 C 73 % 1028,5 hPa 0,0 l/m 1,0 km/h (0 Bft) O-NO 69 0 min 0,000 mm 0,0 UV-I 0 W/m -1,1 C 3,3 C 8,0 km/h (2 Bft)
12.03.2016 01:40 3,3 C 73 % 1028,5 hPa 0,0 l/m 0,6 km/h (0 Bft) O-NO 61 0 min 0,000 mm 0,0 UV-I 0 W/m -1,1 C 3,3 C 9,7 km/h (2 Bft)
12.03.2016 01:45 3,3 C 73 % 1028,6 hPa 0,0 l/m 0,6 km/h (0 Bft) O-NO 59 0 min 0,000 mm 0,0 UV-I 0 W/m -1,1 C 3,3 C 4,8 km/h (1 Bft)
12.03.2016 01:50 3,3 C 74 % 1028,6 hPa 0,0 l/m 0,0 km/h (0 Bft) O-NO 57 0 min 0,000 mm 0,0 UV-I 0 W/m -0,9 C 3,3 C 1,6 km/h (1 Bft)
12.03.2016 01:55 3,3 C 74 % 1028,5 hPa 0,0 l/m 0,5 km/h (0 Bft) NO 52 0 min 0,000 mm 0,0 UV-I 0 W/m -0,9 C 3,3 C 6,4 km/h (2 Bft)
12.03.2016 02:00 3,2 C 74 % 1028,5 hPa 0,0 l/m 0,2 km/h (0 Bft) NO 40 0 min 0,000 mm 0,0 UV-I 0 W/m -1,0 C 3,2 C 3,2 km/h (1 Bft)
12.03.2016 02:05 3,2 C 74 % 1028,5 hPa 0,0 l/m 0,0 km/h (0 Bft) NO 55 0 min 0,026 mm 0,0 UV-I 0 W/m -1,0 C 3,2 C 0,0 km/h (0 Bft)
12.03.2016 02:10 3,2 C 74 % 1028,5 hPa 0,0 l/m 0,0 km/h (0 Bft) O-NO 63 0 min 0,000 mm 0,0 UV-I 0 W/m -1,0 C 3,2 C 0,0 km/h (0 Bft)
12.03.2016 02:15 3,2 C 75 % 1028,5 hPa 0,0 l/m 0,0 km/h (0 Bft) O-NO 61 0 min 0,000 mm 0,0 UV-I 0 W/m -0,8 C 3,2 C 0,0 km/h (0 Bft)
12.03.2016 02:20 3,2 C 74 % 1028,5 hPa 0,0 l/m 0,0 km/h (0 Bft) NO 51 0 min 0,000 mm 0,0 UV-I 0 W/m -1,0 C 3,2 C 0,0 km/h (0 Bft)
12.03.2016 02:25 3,2 C 75 % 1028,5 hPa 0,0 l/m 0,0 km/h (0 Bft) NO 52 0 min 0,000 mm 0,0 UV-I 0 W/m -0,8 C 3,2 C 0,0 km/h (0 Bft)
12.03.2016 02:30 3,2 C 75 % 1028,5 hPa 0,0 l/m 0,1 km/h (0 Bft) O-NO 69 0 min 0,000 mm 0,0 UV-I 0 W/m -0,8 C 3,2 C 4,8 km/h (1 Bft)
12.03.2016 02:35 3,2 C 75 % 1028,5 hPa 0,0 l/m 0,0 km/h (0 Bft) O-NO 65 0 min 0,000 mm 0,0 UV-I 0 W/m -0,8 C 3,2 C 0,0 km/h (0 Bft)
12.03.2016 02:40 3,2 C 76 % 1028,5 hPa 0,0 l/m 0,0 km/h (0 Bft) NO 39 0 min 0,000 mm 0,0 UV-I 0 W/m -0,6 C 3,2 C 0,0 km/h (0 Bft)
12.03.2016 02:45 3,2 C 76 % 1028,5 hPa 0,0 l/m 0,0 km/h (0 Bft) NO 39 0 min 0,000 mm 0,0 UV-I 0 W/m -0,6 C 3,2 C 0,0 km/h (0 Bft)
12.03.2016 02:50 3,2 C 76 % 1028,5 hPa 0,0 l/m 0,0 km/h (0 Bft) NO 39 0 min 0,000 mm 0,0 UV-I 0 W/m -0,6 C 3,2 C 0,0 km/h (0 Bft)
12.03.2016 02:55 3,2 C 77 % 1028,5 hPa 0,0 l/m 0,2 km/h (0 Bft) O-NO 73 0 min 0,000 mm 0,0 UV-I 0 W/m -0,4 C 3,2 C 3,2 km/h (1 Bft)
12.03.2016 03:00 3,2 C 78 % 1028,5 hPa 0,0 l/m 0,0 km/h (0 Bft) O-NO 73 0 min 0,000 mm 0,0 UV-I 0 W/m -0,3 C 3,2 C 0,0 km/h (0 Bft)
12.03.2016 03:05 3,2 C 78 % 1028,5 hPa 0,0 l/m 0,0 km/h (0 Bft) O-NO 73 0 min 0,025 mm 0,0 UV-I 0 W/m -0,3 C 3,2 C 0,0 km/h (0 Bft)
12.03.2016 03:10 3,2 C 78 % 1028,5 hPa 0,0 l/m 0,0 km/h (0 Bft) O-NO 73 0 min 0,000 mm 0,0 UV-I 0 W/m -0,3 C 3,2 C 0,0 km/h (0 Bft)
12.03.2016 03:15 3,2 C 79 % 1028,5 hPa 0,0 l/m 0,0 km/h (0 Bft) N 10 0 min 0,000 mm 0,0 UV-I 0 W/m -0,1 C 3,2 C 0,0 km/h (0 Bft)
12.03.2016 03:20 3,2 C 80 % 1028,6 hPa 0,0 l/m 0,1 km/h (0 Bft) NO 53 0 min 0,000 mm 0,0 UV-I 0 W/m 0,1 C 3,2 C 3,2 km/h (1 Bft)
12.03.2016 03:25 3,2 C 80 % 1028,6 hPa 0,0 l/m 0,0 km/h (0 Bft) NO 53 0 min 0,000 mm 0,0 UV-I 0 W/m 0,1 C 3,2 C 0,0 km/h (0 Bft)
12.03.2016 03:30 3,2 C 80 % 1028,6 hPa 0,0 l/m 0,0 km/h (0 Bft) N-NO 24 0 min 0,000 mm 0,0 UV-I 0 W/m 0,1 C 3,2 C 0,0 km/h (0 Bft)
12.03.2016 03:35 3,1 C 79 % 1028,7 hPa 0,0 l/m 0,0 km/h (0 Bft) N 360 0 min 0,000 mm 0,0 UV-I 0 W/m -0,2 C 3,1 C 3,2 km/h (1 Bft)
12.03.2016 03:40 3,1 C 79 % 1028,6 hPa 0,0 l/m 0,0 km/h (0 Bft) N 360 0 min 0,000 mm 0,0 UV-I 0 W/m -0,2 C 3,1 C 0,0 km/h (0 Bft)
12.03.2016 03:45 3,1 C 80 % 1028,7 hPa 0,0 l/m 0,1 km/h (0 Bft) O-NO 65 0 min 0,000 mm 0,0 UV-I 0 W/m -0,0 C 3,1 C 3,2 km/h (1 Bft)
12.03.2016 03:50 3,0 C 79 % 1028,6 hPa 0,0 l/m 0,5 km/h (0 Bft) O-NO 65 0 min 0,000 mm 0,0 UV-I 0 W/m -0,3 C 3,0 C 8,0 km/h (2 Bft)
12.03.2016 03:55 2,9 C 78 % 1028,6 hPa 0,0 l/m 1,9 km/h (1 Bft) N-NO 32 0 min 0,000 mm 0,0 UV-I 0 W/m -0,5 C 2,9 C 8,0 km/h (2 Bft)
12.03.2016 04:00 2,9 C 78 % 1028,5 hPa 0,0 l/m 2,0 km/h (1 Bft) NO 51 0 min 0,000 mm 0,0 UV-I 0 W/m -0,5 C 2,9 C 14,5 km/h (3 Bft)
12.03.2016 04:05 2,9 C 77 % 1028,5 hPa 0,0 l/m 2,5 km/h (1 Bft) N 11 0 min 0,000 mm 0,0 UV-I 0 W/m -0,7 C 2,9 C 12,9 km/h (3 Bft)
12.03.2016 04:10 2,9 C 77 % 1028,6 hPa 0,0 l/m 4,0 km/h (1 Bft) NO 38 0 min 0,000 mm 0,0 UV-I 0 W/m -0,7 C 2,9 C 14,5 km/h (3 Bft)
12.03.2016 04:15 2,9 C 78 % 1028,5 hPa 0,0 l/m 1,4 km/h (1 Bft) O-SO 111 0 min 0,000 mm 0,0 UV-I 0 W/m -0,5 C 2,9 C 8,0 km/h (2 Bft)
12.03.2016 04:20 2,9 C 79 % 1028,5 hPa 0,0 l/m 6,8 km/h (2 Bft) NO 55 0 min 0,000 mm 0,0 UV-I 0 W/m -0,4 C 2,5 C 14,5 km/h (3 Bft)
12.03.2016 04:25 2,8 C 79 % 1028,6 hPa 0,0 l/m 1,8 km/h (1 Bft) O-NO 58 0 min 0,000 mm 0,0 UV-I 0 W/m -0,5 C 2,8 C 9,7 km/h (2 Bft)
12.03.2016 04:30 2,8 C 80 % 1028,6 hPa 0,0 l/m 0,8 km/h (0 Bft) NO 41 0 min 0,000 mm 0,0 UV-I 0 W/m -0,3 C 2,8 C 12,9 km/h (3 Bft)
12.03.2016 04:35 2,8 C 80 % 1028,6 hPa 0,0 l/m 0,0 km/h (0 Bft) NO 50 0 min 0,000 mm 0,0 UV-I 0 W/m -0,3 C 2,8 C 0,0 km/h (0 Bft)
12.03.2016 04:40 2,8 C 80 % 1028,7 hPa 0,0 l/m 0,0 km/h (0 Bft) NO 50 0 min 0,000 mm 0,0 UV-I 0 W/m -0,3 C 2,8 C 0,0 km/h (0 Bft)
12.03.2016 04:45 2,8 C 80 % 1028,8 hPa 0,0 l/m 0,0 km/h (0 Bft) N-NO 28 0 min 0,000 mm 0,0 UV-I 0 W/m -0,3 C 2,8 C 0,0 km/h (0 Bft)
12.03.2016 04:50 2,8 C 80 % 1028,8 hPa 0,0 l/m 0,0 km/h (0 Bft) NO 41 0 min 0,000 mm 0,0 UV-I 0 W/m -0,3 C 2,8 C 0,0 km/h (0 Bft)
12.03.2016 04:55 2,8 C 80 % 1028,9 hPa 0,0 l/m 0,0 km/h (0 Bft) NO 47 0 min 0,000 mm 0,0 UV-I 0 W/m -0,3 C 2,8 C 0,0 km/h (0 Bft)
12.03.2016 05:00 2,8 C 80 % 1028,9 hPa 0,0 l/m 0,0 km/h (0 Bft) NO 47 0 min 0,000 mm 0,0 UV-I 0 W/m -0,3 C 2,8 C 0,0 km/h (0 Bft)
12.03.2016 05:05 2,8 C 80 % 1028,9 hPa 0,0 l/m 0,0 km/h (0 Bft) NO 47 0 min 0,000 mm 0,0 UV-I 0 W/m -0,3 C 2,8 C 0,0 km/h (0 Bft)
12.03.2016 05:10 2,8 C 80 % 1029,0 hPa 0,0 l/m 0,0 km/h (0 Bft) N 355 0 min 0,000 mm 0,0 UV-I 0 W/m -0,3 C 2,8 C 0,0 km/h (0 Bft)
12.03.2016 05:15 2,8 C 80 % 1029,0 hPa 0,0 l/m 0,0 km/h (0 Bft) N 9 0 min 0,000 mm 0,0 UV-I 0 W/m -0,3 C 2,8 C 0,0 km/h (0 Bft)
12.03.2016 05:20 2,8 C 80 % 1028,9 hPa 0,0 l/m 0,0 km/h (0 Bft) NO 50 0 min 0,000 mm 0,0 UV-I 0 W/m -0,3 C 2,8 C 0,0 km/h (0 Bft)
12.03.2016 05:25 2,7 C 79 % 1029,0 hPa 0,0 l/m 0,0 km/h (0 Bft) N-NO 30 0 min 0,000 mm 0,0 UV-I 0 W/m -0,6 C 2,7 C 1,6 km/h (1 Bft)
12.03.2016 05:30 2,7 C 78 % 1028,9 hPa 0,0 l/m 0,1 km/h (0 Bft) NO 53 0 min 0,000 mm 0,0 UV-I 0 W/m -0,7 C 2,7 C 3,2 km/h (1 Bft)
12.03.2016 05:35 2,7 C 78 % 1029,0 hPa 0,0 l/m 0,2 km/h (0 Bft) O-NO 60 0 min 0,000 mm 0,0 UV-I 0 W/m -0,7 C 2,7 C 3,2 km/h (1 Bft)
12.03.2016 05:40 2,7 C 78 % 1029,0 hPa 0,0 l/m 3,4 km/h (1 Bft) O-NO 57 0 min 0,000 mm 0,0 UV-I 0 W/m -0,7 C 2,7 C 17,7 km/h (3 Bft)
12.03.2016 05:45 2,7 C 78 % 1028,9 hPa 0,0 l/m 0,6 km/h (0 Bft) O 95 0 min 0,000 mm 0,0 UV-I 0 W/m -0,7 C 2,7 C 8,0 km/h (2 Bft)
12.03.2016 05:50 2,7 C 78 % 1029,0 hPa 0,0 l/m 2,9 km/h (1 Bft) N-NW 342 0 min 0,000 mm 0,0 UV-I 0 W/m -0,7 C 2,7 C 12,9 km/h (3 Bft)
12.03.2016 05:55 2,6 C 78 % 1028,9 hPa 0,0 l/m 4,3 km/h (1 Bft) NO 43 0 min 0,000 mm 0,0 UV-I 0 W/m -0,8 C 2,6 C 14,5 km/h (3 Bft)
12.03.2016 06:00 2,6 C 78 % 1029,0 hPa 0,0 l/m 1,0 km/h (0 Bft) O-NO 61 0 min 0,000 mm 0,0 UV-I 0 W/m -0,8 C 2,6 C 11,3 km/h (2 Bft)
12.03.2016 06:05 2,6 C 78 % 1028,9 hPa 0,0 l/m 0,2 km/h (0 Bft) O-NO 66 0 min 0,000 mm 0,0 UV-I 0 W/m -0,8 C 2,6 C 4,8 km/h (1 Bft)
12.03.2016 06:10 2,6 C 78 % 1029,0 hPa 0,0 l/m 0,1 km/h (0 Bft) NO 37 0 min 0,000 mm 0,0 UV-I 0 W/m -0,8 C 2,6 C 3,2 km/h (1 Bft)
12.03.2016 06:15 2,6 C 79 % 1029,0 hPa 0,0 l/m 0,0 km/h (0 Bft) O-NO 66 0 min 0,000 mm 0,0 UV-I 0 W/m -0,7 C 2,6 C 1,6 km/h (1 Bft)
12.03.2016 06:20 2,6 C 79 % 1029,0 hPa 0,0 l/m 0,0 km/h (0 Bft) O-NO 66 0 min 0,000 mm 0,0 UV-I 0 W/m -0,7 C 2,6 C 0,0 km/h (0 Bft)
12.03.2016 06:25 2,6 C 78 % 1029,0 hPa 0,0 l/m 0,8 km/h (0 Bft) O-NO 58 0 min 0,000 mm 0,0 UV-I 0 W/m -0,8 C 2,6 C 8,0 km/h (2 Bft)
12.03.2016 06:30 2,5 C 79 % 1029,0 hPa 0,0 l/m 0,0 km/h (0 Bft) O-NO 59 0 min 0,000 mm 0,0 UV-I 0 W/m -0,8 C 2,5 C 0,0 km/h (0 Bft)
12.03.2016 06:35 2,5 C 79 % 1029,0 hPa 0,0 l/m 0,0 km/h (0 Bft) O-NO 62 0 min 0,000 mm 0,0 UV-I 0 W/m -0,8 C 2,5 C 0,0 km/h (0 Bft)
12.03.2016 06:40 2,5 C 79 % 1029,1 hPa 0,0 l/m 0,4 km/h (0 Bft) O-NO 65 0 min 0,000 mm 0,0 UV-I 0 W/m -0,8 C 2,5 C 4,8 km/h (1 Bft)
12.03.2016 06:45 2,5 C 79 % 1029,1 hPa 0,0 l/m 0,8 km/h (0 Bft) O-NO 67 0 min 0,000 mm 0,0 UV-I 0 W/m -0,8 C 2,5 C 4,8 km/h (1 Bft)
12.03.2016 06:50 2,4 C 79 % 1029,0 hPa 0,0 l/m 0,0 km/h (0 Bft) O-NO 60 0 min 0,000 mm 0,0 UV-I 0 W/m -0,9 C 2,4 C 1,6 km/h (1 Bft)
12.03.2016 06:55 2,4 C 79 % 1029,1 hPa 0,0 l/m 0,0 km/h (0 Bft) O-NO 60 0 min 0,000 mm 0,0 UV-I 0 W/m -0,9 C 2,4 C 0,0 km/h (0 Bft)
12.03.2016 07:00 2,4 C 79 % 1029,1 hPa 0,0 l/m 0,0 km/h (0 Bft) O-NO 67 0 min 0,000 mm 0,0 UV-I 0 W/m -0,9 C 2,4 C 0,0 km/h (0 Bft)
12.03.2016 07:05 2,4 C 79 % 1029,2 hPa 0,0 l/m 0,3 km/h (0 Bft) O-NO 61 0 min 0,000 mm 0,0 UV-I 0 W/m -0,9 C 2,4 C 8,0 km/h (2 Bft)
12.03.2016 07:10 2,4 C 79 % 1029,3 hPa 0,0 l/m 0,0 km/h (0 Bft) NO 38 0 min 0,000 mm 0,0 UV-I 0 W/m -0,9 C 2,4 C 3,2 km/h (1 Bft)
12.03.2016 07:15 2,4 C 78 % 1029,3 hPa 0,0 l/m 0,6 km/h (0 Bft) O-NO 67 0 min 0,000 mm 0,0 UV-I 0 W/m -1,0 C 2,4 C 6,4 km/h (2 Bft)
12.03.2016 07:20 2,4 C 78 % 1029,3 hPa 0,0 l/m 0,0 km/h (0 Bft) O-NO 61 0 min 0,000 mm 0,0 UV-I 2 W/m -1,0 C 2,4 C 0,0 km/h (0 Bft)
12.03.2016 07:25 2,4 C 79 % 1029,3 hPa 0,0 l/m 1,3 km/h (1 Bft) NO 55 0 min 0,000 mm 0,0 UV-I 5 W/m -0,9 C 2,4 C 8,0 km/h (2 Bft)
12.03.2016 07:30 2,4 C 79 % 1029,4 hPa 0,0 l/m 2,8 km/h (1 Bft) O-NO 59 0 min 0,000 mm 0,0 UV-I 7 W/m -0,9 C 2,4 C 12,9 km/h (3 Bft)
12.03.2016 07:35 2,4 C 78 % 1029,4 hPa 0,0 l/m 5,3 km/h (1 Bft) O-NO 67 0 min 0,000 mm 0,0 UV-I 9 W/m -1,0 C 2,4 C 16,1 km/h (3 Bft)
12.03.2016 07:40 2,3 C 77 % 1029,4 hPa 0,0 l/m 6,7 km/h (2 Bft) O-NO 71 0 min 0,000 mm 0,0 UV-I 11 W/m -1,3 C 2,0 C 20,9 km/h (4 Bft)
12.03.2016 07:45 2,4 C 77 % 1029,5 hPa 0,0 l/m 5,9 km/h (2 Bft) NO 53 0 min 0,000 mm 0,0 UV-I 12 W/m -1,2 C 2,4 C 17,7 km/h (3 Bft)
12.03.2016 07:50 2,4 C 78 % 1029,4 hPa 0,0 l/m 3,9 km/h (1 Bft) O-NO 71 0 min 0,000 mm 0,0 UV-I 13 W/m -1,0 C 2,4 C 16,1 km/h (3 Bft)
12.03.2016 07:55 2,4 C 77 % 1029,4 hPa 0,0 l/m 3,1 km/h (1 Bft) NO 51 0 min 0,000 mm 0,0 UV-I 15 W/m -1,2 C 2,4 C 11,3 km/h (2 Bft)
12.03.2016 08:00 2,4 C 77 % 1029,4 hPa 0,0 l/m 7,3 km/h (2 Bft) NO 55 0 min 0,000 mm 0,0 UV-I 16 W/m -1,2 C 1,5 C 17,7 km/h (3 Bft)
12.03.2016 08:05 2,4 C 77 % 1029,4 hPa 0,0 l/m 10,1 km/h (2 Bft) NO 41 0 min 0,000 mm 0,0 UV-I 17 W/m -1,2 C -0,9 C 19,3 km/h (3 Bft)
12.03.2016 08:10 2,4 C 77 % 1029,4 hPa 0,0 l/m 11,2 km/h (2 Bft) O-NO 58 0 min 0,000 mm 0,0 UV-I 19 W/m -1,2 C -1,7 C 22,5 km/h (4 Bft)
12.03.2016 08:15 2,4 C 77 % 1029,6 hPa 0,0 l/m 9,1 km/h (2 Bft) NO 51 0 min 0,000 mm 0,0 UV-I 21 W/m -1,2 C -0,1 C 20,9 km/h (4 Bft)
12.03.2016 08:20 2,4 C 77 % 1029,6 hPa 0,0 l/m 9,1 km/h (2 Bft) N-NO 22 0 min 0,000 mm 0,0 UV-I 23 W/m -1,2 C -0,1 C 19,3 km/h (3 Bft)
12.03.2016 08:25 2,4 C 77 % 1029,5 hPa 0,0 l/m 3,2 km/h (1 Bft) O-NO 67 0 min 0,000 mm 0,0 UV-I 25 W/m -1,2 C 2,4 C 12,9 km/h (3 Bft)
12.03.2016 08:30 2,4 C 78 % 1029,6 hPa 0,0 l/m 6,0 km/h (2 Bft) NO 55 0 min 0,000 mm 0,0 UV-I 26 W/m -1,0 C 2,4 C 16,1 km/h (3 Bft)
12.03.2016 08:35 2,5 C 78 % 1029,5 hPa 0,0 l/m 5,2 km/h (1 Bft) NO 53 0 min 0,000 mm 0,0 UV-I 30 W/m -0,9 C 2,5 C 19,3 km/h (3 Bft)
12.03.2016 08:40 2,5 C 77 % 1029,5 hPa 0,0 l/m 8,4 km/h (2 Bft) O-SO 115 0 min 0,000 mm 0,0 UV-I 33 W/m -1,1 C 0,6 C 17,7 km/h (3 Bft)
12.03.2016 08:45 2,6 C 77 % 1029,6 hPa 0,0 l/m 5,8 km/h (2 Bft) NO 38 0 min 0,000 mm 0,0 UV-I 34 W/m -1,0 C 2,6 C 16,1 km/h (3 Bft)
12.03.2016 08:50 2,6 C 77 % 1029,6 hPa 0,0 l/m 4,4 km/h (1 Bft) NO 53 0 min 0,000 mm 0,0 UV-I 39 W/m -1,0 C 2,6 C 14,5 km/h (3 Bft)
12.03.2016 08:55 2,6 C 77 % 1029,6 hPa 0,0 l/m 7,4 km/h (2 Bft) NO 49 0 min 0,000 mm 0,0 UV-I 39 W/m -1,0 C 1,6 C 16,1 km/h (3 Bft)
12.03.2016 09:00 2,6 C 77 % 1029,7 hPa 0,0 l/m 2,5 km/h (1 Bft) NO 51 0 min 0,000 mm 0,0 UV-I 39 W/m -1,0 C 2,6 C 14,5 km/h (3 Bft)
12.03.2016 09:05 2,6 C 76 % 1029,6 hPa 0,0 l/m 6,2 km/h (2 Bft) NO 41 0 min 0,026 mm 0,0 UV-I 39 W/m -1,2 C 2,6 C 16,1 km/h (3 Bft)
12.03.2016 09:10 2,7 C 76 % 1029,7 hPa 0,0 l/m 5,5 km/h (1 Bft) NO 38 0 min 0,000 mm 0,0 UV-I 40 W/m -1,1 C 2,7 C 12,9 km/h (3 Bft)
12.03.2016 09:15 2,7 C 77 % 1029,7 hPa 0,0 l/m 7,2 km/h (2 Bft) NO 45 0 min 0,000 mm 0,0 UV-I 42 W/m -0,9 C 1,9 C 14,5 km/h (3 Bft)
12.03.2016 09:20 2,7 C 77 % 1029,8 hPa 0,0 l/m 5,7 km/h (1 Bft) NO 47 0 min 0,000 mm 0,0 UV-I 44 W/m -0,9 C 2,7 C 12,9 km/h (3 Bft)
12.03.2016 09:25 2,7 C 77 % 1029,8 hPa 0,0 l/m 5,2 km/h (1 Bft) O 82 0 min 0,000 mm 0,0 UV-I 45 W/m -0,9 C 2,7 C 14,5 km/h (3 Bft)
12.03.2016 09:30 2,7 C 77 % 1029,9 hPa 0,0 l/m 2,3 km/h (1 Bft) O-NO 65 0 min 0,000 mm 0,0 UV-I 48 W/m -0,9 C 2,7 C 11,3 km/h (2 Bft)
12.03.2016 09:35 2,7 C 77 % 1030,0 hPa 0,0 l/m 5,0 km/h (1 Bft) S-SW 210 0 min 0,000 mm 0,0 UV-I 47 W/m -0,9 C 2,7 C 14,5 km/h (3 Bft)
12.03.2016 09:40 2,7 C 76 % 1030,1 hPa 0,0 l/m 9,8 km/h (2 Bft) NO 47 0 min 0,000 mm 0,0 UV-I 50 W/m -1,1 C -0,3 C 19,3 km/h (3 Bft)
12.03.2016 09:45 2,7 C 76 % 1030,1 hPa 0,0 l/m 7,9 km/h (2 Bft) NO 44 0 min 0,000 mm 0,0 UV-I 54 W/m -1,1 C 1,3 C 14,5 km/h (3 Bft)
12.03.2016 09:50 2,7 C 76 % 1030,1 hPa 0,0 l/m 8,4 km/h (2 Bft) O-SO 105 0 min 0,000 mm 0,0 UV-I 53 W/m -1,1 C 0,8 C 17,7 km/h (3 Bft)
12.03.2016 09:55 2,7 C 77 % 1030,1 hPa 0,0 l/m 8,2 km/h (2 Bft) O-NO 66 0 min 0,000 mm 0,0 UV-I 53 W/m -0,9 C 1,0 C 17,7 km/h (3 Bft)
12.03.2016 10:00 2,7 C 77 % 1030,1 hPa 0,0 l/m 6,1 km/h (2 Bft) NO 42 0 min 0,000 mm 0,0 UV-I 51 W/m -0,9 C 2,7 C 14,5 km/h (3 Bft)
12.03.2016 10:05 2,7 C 77 % 1030,2 hPa 0,0 l/m 8,6 km/h (2 Bft) O 101 0 min 0,025 mm 0,0 UV-I 49 W/m -0,9 C 0,7 C 19,3 km/h (3 Bft)
12.03.2016 10:10 2,7 C 78 % 1030,2 hPa 0,0 l/m 6,1 km/h (2 Bft) O-NO 57 0 min 0,000 mm 0,0 UV-I 49 W/m -0,7 C 2,7 C 16,1 km/h (3 Bft)
12.03.2016 10:15 2,7 C 77 % 1030,2 hPa 0,0 l/m 5,3 km/h (1 Bft) O-NO 69 0 min 0,000 mm 0,0 UV-I 49 W/m -0,9 C 2,7 C 11,3 km/h (2 Bft)
12.03.2016 10:20 2,8 C 77 % 1030,3 hPa 0,0 l/m 2,0 km/h (1 Bft) N-NO 32 0 min 0,000 mm 0,0 UV-I 51 W/m -0,8 C 2,8 C 11,3 km/h (2 Bft)
12.03.2016 10:25 2,8 C 77 % 1030,3 hPa 0,0 l/m 4,5 km/h (1 Bft) NO 55 0 min 0,000 mm 0,0 UV-I 50 W/m -0,8 C 2,8 C 14,5 km/h (3 Bft)
12.03.2016 10:30 2,8 C 77 % 1030,3 hPa 0,0 l/m 3,9 km/h (1 Bft) O-NO 58 0 min 0,000 mm 0,0 UV-I 53 W/m -0,8 C 2,8 C 12,9 km/h (3 Bft)
12.03.2016 10:35 2,8 C 77 % 1030,3 hPa 0,0 l/m 4,1 km/h (1 Bft) O-NO 69 0 min 0,000 mm 0,5 UV-I 57 W/m -0,8 C 2,8 C 11,3 km/h (2 Bft)
12.03.2016 10:40 2,8 C 77 % 1030,3 hPa 0,0 l/m 3,8 km/h (1 Bft) O-NO 63 0 min 0,000 mm 0,6 UV-I 65 W/m -0,8 C 2,8 C 11,3 km/h (2 Bft)
12.03.2016 10:45 2,9 C 76 % 1030,3 hPa 0,0 l/m 4,9 km/h (1 Bft) O-NO 73 0 min 0,000 mm 0,7 UV-I 72 W/m -0,9 C 2,9 C 14,5 km/h (3 Bft)
12.03.2016 10:50 2,9 C 76 % 1030,3 hPa 0,0 l/m 7,9 km/h (2 Bft) O-NO 70 0 min 0,000 mm 0,7 UV-I 72 W/m -0,9 C 1,5 C 17,7 km/h (3 Bft)
12.03.2016 10:55 2,8 C 76 % 1030,3 hPa 0,0 l/m 8,5 km/h (2 Bft) NO 55 0 min 0,000 mm 0,7 UV-I 71 W/m -1,0 C 0,9 C 16,1 km/h (3 Bft)
12.03.2016 11:00 2,8 C 77 % 1030,3 hPa 0,0 l/m 8,6 km/h (2 Bft) NO 56 0 min 0,000 mm 0,7 UV-I 71 W/m -0,8 C 0,8 C 16,1 km/h (3 Bft)
12.03.2016 11:05 2,9 C 76 % 1030,3 hPa 0,0 l/m 7,1 km/h (2 Bft) O-NO 63 0 min 0,025 mm 0,7 UV-I 78 W/m -0,9 C 2,2 C 14,5 km/h (3 Bft)
12.03.2016 11:10 2,9 C 76 % 1030,3 hPa 0,0 l/m 6,2 km/h (2 Bft) O-NO 77 0 min 0,000 mm 0,8 UV-I 82 W/m -0,9 C 2,9 C 14,5 km/h (3 Bft)
12.03.2016 11:15 3,0 C 76 % 1030,3 hPa 0,0 l/m 9,4 km/h (2 Bft) N-NO 18 0 min 0,000 mm 0,8 UV-I 85 W/m -0,8 C 0,3 C 17,7 km/h (3 Bft)
12.03.2016 11:20 2,9 C 76 % 1030,3 hPa 0,0 l/m 11,9 km/h (2 Bft) O-NO 77 0 min 0,000 mm 0,8 UV-I 86 W/m -0,9 C -1,6 C 22,5 km/h (4 Bft)
12.03.2016 11:25 2,9 C 76 % 1030,3 hPa 0,0 l/m 9,5 km/h (2 Bft) NO 51 0 min 0,000 mm 0,9 UV-I 91 W/m -0,9 C 0,1 C 19,3 km/h (3 Bft)
12.03.2016 11:30 3,0 C 76 % 1030,3 hPa 0,0 l/m 8,0 km/h (2 Bft) NO 42 0 min 0,000 mm 0,9 UV-I 94 W/m -0,8 C 1,5 C 17,7 km/h (3 Bft)
12.03.2016 11:35 3,1 C 77 % 1030,2 hPa 0,0 l/m 2,6 km/h (1 Bft) NO 55 0 min 0,000 mm 0,9 UV-I 93 W/m -0,5 C 3,1 C 11,3 km/h (2 Bft)
12.03.2016 11:40 3,1 C 76 % 1030,2 hPa 0,0 l/m 5,6 km/h (1 Bft) O-NO 64 0 min 0,000 mm 0,9 UV-I 89 W/m -0,7 C 3,1 C 19,3 km/h (3 Bft)
12.03.2016 11:45 3,0 C 77 % 1030,2 hPa 0,0 l/m 9,5 km/h (2 Bft) O-NO 64 0 min 0,000 mm 0,9 UV-I 91 W/m -0,6 C 0,2 C 16,1 km/h (3 Bft)
12.03.2016 11:50 3,1 C 77 % 1030,2 hPa 0,0 l/m 4,6 km/h (1 Bft) NO 50 0 min 0,000 mm 0,9 UV-I 96 W/m -0,5 C 3,1 C 12,9 km/h (3 Bft)
12.03.2016 11:55 3,2 C 77 % 1030,2 hPa 0,0 l/m 2,1 km/h (1 Bft) NO 55 0 min 0,000 mm 1,0 UV-I 103 W/m -0,4 C 3,2 C 11,3 km/h (2 Bft)
12.03.2016 12:00 3,3 C 76 % 1030,2 hPa 0,0 l/m 4,5 km/h (1 Bft) O-NO 61 0 min 0,000 mm 1,0 UV-I 101 W/m -0,5 C 3,3 C 16,1 km/h (3 Bft)
12.03.2016 12:05 3,2 C 76 % 1030,2 hPa 0,0 l/m 9,3 km/h (2 Bft) O-NO 65 0 min 0,051 mm 1,1 UV-I 114 W/m -0,6 C 0,6 C 17,7 km/h (3 Bft)
12.03.2016 12:10 3,2 C 76 % 1030,2 hPa 0,0 l/m 4,0 km/h (1 Bft) O-NO 61 0 min 0,000 mm 1,0 UV-I 101 W/m -0,6 C 3,2 C 12,9 km/h (3 Bft)
12.03.2016 12:15 3,3 C 76 % 1030,2 hPa 0,0 l/m 2,2 km/h (1 Bft) NO 50 0 min 0,000 mm 1,0 UV-I 102 W/m -0,5 C 3,3 C 14,5 km/h (3 Bft)
12.03.2016 12:20 3,4 C 76 % 1030,2 hPa 0,0 l/m 0,1 km/h (0 Bft) N-NO 18 0 min 0,000 mm 1,0 UV-I 101 W/m -0,4 C 3,4 C 1,6 km/h (1 Bft)
12.03.2016 12:25 3,4 C 76 % 1030,2 hPa 0,0 l/m 2,4 km/h (1 Bft) O-NO 63 0 min 0,000 mm 1,0 UV-I 106 W/m -0,4 C 3,4 C 11,3 km/h (2 Bft)
12.03.2016 12:30 3,4 C 75 % 1030,1 hPa 0,0 l/m 6,7 km/h (2 Bft) O-NO 66 0 min 0,000 mm 1,0 UV-I 104 W/m -0,6 C 3,1 C 16,1 km/h (3 Bft)
12.03.2016 12:35 3,4 C 76 % 1030,2 hPa 0,0 l/m 1,3 km/h (1 Bft) N-NO 15 0 min 0,000 mm 1,0 UV-I 97 W/m -0,4 C 3,4 C 14,5 km/h (3 Bft)
12.03.2016 12:40 3,4 C 75 % 1030,1 hPa 0,0 l/m 4,2 km/h (1 Bft) NO 47 0 min 0,000 mm 1,0 UV-I 104 W/m -0,6 C 3,4 C 16,1 km/h (3 Bft)
12.03.2016 12:45 3,4 C 75 % 1030,1 hPa 0,0 l/m 7,4 km/h (2 Bft) NO 56 0 min 0,000 mm 1,1 UV-I 109 W/m -0,6 C 2,5 C 17,7 km/h (3 Bft)
12.03.2016 12:50 3,4 C 75 % 1030,0 hPa 0,0 l/m 10,4 km/h (2 Bft) O-NO 60 0 min 0,000 mm 1,0 UV-I 107 W/m -0,6 C 0,0 C 17,7 km/h (3 Bft)
12.03.2016 12:55 3,3 C 75 % 1030,0 hPa 0,0 l/m 8,0 km/h (2 Bft) O-NO 76 0 min 0,000 mm 1,1 UV-I 113 W/m -0,7 C 1,8 C 17,7 km/h (3 Bft)
12.03.2016 13:00 3,4 C 76 % 1030,0 hPa 0,0 l/m 5,1 km/h (1 Bft) NO 49 0 min 0,000 mm 1,1 UV-I 110 W/m -0,4 C 3,4 C 14,5 km/h (3 Bft)
12.03.2016 13:05 3,5 C 75 % 1029,9 hPa 0,0 l/m 2,6 km/h (1 Bft) NO 50 0 min 0,051 mm 1,1 UV-I 109 W/m -0,5 C 3,5 C 11,3 km/h (2 Bft)
12.03.2016 13:10 3,6 C 75 % 1029,9 hPa 0,0 l/m 2,5 km/h (1 Bft) NO 38 0 min 0,000 mm 1,1 UV-I 111 W/m -0,4 C 3,6 C 12,9 km/h (3 Bft)
12.03.2016 13:15 3,6 C 74 % 1029,8 hPa 0,0 l/m 7,3 km/h (2 Bft) NO 55 0 min 0,000 mm 1,1 UV-I 112 W/m -0,6 C 2,8 C 20,9 km/h (4 Bft)
12.03.2016 13:20 3,6 C 75 % 1029,8 hPa 0,0 l/m 7,8 km/h (2 Bft) O 94 0 min 0,000 mm 1,0 UV-I 103 W/m -0,4 C 2,3 C 14,5 km/h (3 Bft)
12.03.2016 13:25 3,7 C 75 % 1029,8 hPa 0,0 l/m 2,4 km/h (1 Bft) N-NO 27 0 min 0,000 mm 1,0 UV-I 100 W/m -0,3 C 3,7 C 12,9 km/h (3 Bft)
12.03.2016 13:30 3,7 C 74 % 1029,8 hPa 0,0 l/m 8,0 km/h (2 Bft) O-NO 69 0 min 0,000 mm 0,9 UV-I 94 W/m -0,5 C 2,2 C 19,3 km/h (3 Bft)
12.03.2016 13:35 3,7 C 75 % 1029,8 hPa 0,0 l/m 4,1 km/h (1 Bft) NO 45 0 min 0,000 mm 0,9 UV-I 92 W/m -0,3 C 3,7 C 11,3 km/h (2 Bft)
12.03.2016 13:40 3,7 C 75 % 1029,8 hPa 0,0 l/m 5,0 km/h (1 Bft) NO 55 0 min 0,000 mm 0,9 UV-I 88 W/m -0,3 C 3,7 C 14,5 km/h (3 Bft)
12.03.2016 13:45 3,7 C 75 % 1029,8 hPa 0,0 l/m 2,5 km/h (1 Bft) N-NO 24 0 min 0,000 mm 0,9 UV-I 90 W/m -0,3 C 3,7 C 16,1 km/h (3 Bft)
12.03.2016 13:50 3,6 C 74 % 1029,7 hPa 0,0 l/m 8,2 km/h (2 Bft) O 84 0 min 0,000 mm 0,9 UV-I 89 W/m -0,6 C 2,0 C 16,1 km/h (3 Bft)
12.03.2016 13:55 3,5 C 75 % 1029,7 hPa 0,0 l/m 5,4 km/h (1 Bft) O-SO 105 0 min 0,000 mm 0,9 UV-I 90 W/m -0,5 C 3,5 C 14,5 km/h (3 Bft)
12.03.2016 14:00 3,5 C 76 % 1029,7 hPa 0,0 l/m 4,5 km/h (1 Bft) NO 43 0 min 0,000 mm 0,9 UV-I 93 W/m -0,3 C 3,5 C 12,9 km/h (3 Bft)
12.03.2016 14:05 3,6 C 75 % 1029,6 hPa 0,0 l/m 8,0 km/h (2 Bft) NO 38 0 min 0,051 mm 0,8 UV-I 85 W/m -0,4 C 2,1 C 22,5 km/h (4 Bft)
12.03.2016 14:10 3,7 C 74 % 1029,6 hPa 0,0 l/m 3,6 km/h (1 Bft) O-NO 74 0 min 0,000 mm 0,8 UV-I 82 W/m -0,5 C 3,7 C 14,5 km/h (3 Bft)
12.03.2016 14:15 3,7 C 74 % 1029,6 hPa 0,0 l/m 5,2 km/h (1 Bft) NW 323 0 min 0,000 mm 0,8 UV-I 80 W/m -0,5 C 3,7 C 16,1 km/h (3 Bft)
12.03.2016 14:20 3,7 C 74 % 1029,6 hPa 0,0 l/m 3,8 km/h (1 Bft) N-NO 28 0 min 0,000 mm 0,8 UV-I 79 W/m -0,5 C 3,7 C 17,7 km/h (3 Bft)
12.03.2016 14:25 3,8 C 75 % 1029,6 hPa 0,0 l/m 0,0 km/h (0 Bft) N 360 0 min 0,000 mm 0,7 UV-I 78 W/m -0,2 C 3,8 C 0,0 km/h (0 Bft)
12.03.2016 14:30 3,8 C 74 % 1029,5 hPa 0,0 l/m 4,6 km/h (1 Bft) O-NO 65 0 min 0,000 mm 0,8 UV-I 85 W/m -0,4 C 3,8 C 14,5 km/h (3 Bft)
12.03.2016 14:35 3,8 C 74 % 1029,6 hPa 0,0 l/m 7,9 km/h (2 Bft) O-NO 59 0 min 0,000 mm 0,8 UV-I 82 W/m -0,4 C 2,4 C 14,5 km/h (3 Bft)
12.03.2016 14:40 3,8 C 74 % 1029,5 hPa 0,0 l/m 5,9 km/h (2 Bft) O 88 0 min 0,000 mm 0,7 UV-I 77 W/m -0,4 C 3,8 C 14,5 km/h (3 Bft)
12.03.2016 14:45 3,7 C 74 % 1029,5 hPa 0,0 l/m 6,7 km/h (2 Bft) O-NO 69 0 min 0,000 mm 0,7 UV-I 76 W/m -0,5 C 3,4 C 14,5 km/h (3 Bft)
12.03.2016 14:50 3,7 C 75 % 1029,5 hPa 0,0 l/m 4,6 km/h (1 Bft) O-NO 61 0 min 0,000 mm 0,7 UV-I 71 W/m -0,3 C 3,7 C 11,3 km/h (2 Bft)
12.03.2016 14:55 3,7 C 75 % 1029,6 hPa 0,0 l/m 3,4 km/h (1 Bft) O-NO 61 0 min 0,000 mm 0,6 UV-I 69 W/m -0,3 C 3,7 C 11,3 km/h (2 Bft)
12.03.2016 15:00 3,8 C 74 % 1029,6 hPa 0,0 l/m 5,3 km/h (1 Bft) O-NO 67 0 min 0,000 mm 0,6 UV-I 65 W/m -0,4 C 3,8 C 14,5 km/h (3 Bft)
12.03.2016 15:05 3,8 C 74 % 1029,6 hPa 0,0 l/m 4,1 km/h (1 Bft) O 80 0 min 0,051 mm 0,6 UV-I 65 W/m -0,4 C 3,8 C 12,9 km/h (3 Bft)
12.03.2016 15:10 3,8 C 75 % 1029,6 hPa 0,0 l/m 0,7 km/h (0 Bft) NO 42 0 min 0,000 mm 0,6 UV-I 69 W/m -0,2 C 3,8 C 8,0 km/h (2 Bft)
12.03.2016 15:15 3,8 C 74 % 1029,6 hPa 0,0 l/m 5,2 km/h (1 Bft) N-NO 32 0 min 0,000 mm 0,6 UV-I 72 W/m -0,4 C 3,8 C 14,5 km/h (3 Bft)
12.03.2016 15:20 3,8 C 75 % 1029,6 hPa 0,0 l/m 5,7 km/h (1 Bft) NO 45 0 min 0,000 mm 0,6 UV-I 64 W/m -0,2 C 3,8 C 14,5 km/h (3 Bft)
12.03.2016 15:25 3,8 C 75 % 1029,7 hPa 0,0 l/m 3,8 km/h (1 Bft) NO 39 0 min 0,000 mm 0,6 UV-I 62 W/m -0,2 C 3,8 C 12,9 km/h (3 Bft)
12.03.2016 15:30 3,8 C 74 % 1029,7 hPa 0,0 l/m 10,5 km/h (2 Bft) NO 47 0 min 0,000 mm 0,6 UV-I 62 W/m -0,4 C 0,4 C 17,7 km/h (3 Bft)
12.03.2016 15:35 3,8 C 75 % 1029,7 hPa 0,0 l/m 3,0 km/h (1 Bft) NO 43 0 min 0,000 mm 0,6 UV-I 65 W/m -0,2 C 3,8 C 16,1 km/h (3 Bft)
12.03.2016 15:40 3,8 C 74 % 1029,7 hPa 0,0 l/m 5,7 km/h (1 Bft) O-NO 65 0 min 0,000 mm 0,5 UV-I 65 W/m -0,4 C 3,8 C 17,7 km/h (3 Bft)
12.03.2016 15:45 3,8 C 74 % 1029,6 hPa 0,0 l/m 5,9 km/h (2 Bft) O-SO 113 0 min 0,000 mm 0,5 UV-I 59 W/m -0,4 C 3,8 C 16,1 km/h (3 Bft)
12.03.2016 15:50 3,8 C 74 % 1029,6 hPa 0,0 l/m 6,2 km/h (2 Bft) O-NO 62 0 min 0,000 mm 0,0 UV-I 54 W/m -0,4 C 3,8 C 14,5 km/h (3 Bft)
12.03.2016 15:55 3,8 C 74 % 1029,6 hPa 0,0 l/m 5,0 km/h (1 Bft) O-NO 65 0 min 0,000 mm 0,0 UV-I 53 W/m -0,4 C 3,8 C 12,9 km/h (3 Bft)
12.03.2016 16:00 3,8 C 74 % 1029,6 hPa 0,0 l/m 6,2 km/h (2 Bft) O-NO 74 0 min 0,000 mm 0,0 UV-I 52 W/m -0,4 C 3,8 C 17,7 km/h (3 Bft)
12.03.2016 16:05 3,8 C 74 % 1029,6 hPa 0,0 l/m 9,2 km/h (2 Bft) NO 50 0 min 0,025 mm 0,0 UV-I 51 W/m -0,4 C 1,4 C 17,7 km/h (3 Bft)
12.03.2016 16:10 3,8 C 74 % 1029,6 hPa 0,0 l/m 4,2 km/h (1 Bft) O-NO 69 0 min 0,000 mm 0,0 UV-I 52 W/m -0,4 C 3,8 C 12,9 km/h (3 Bft)
12.03.2016 16:15 3,8 C 74 % 1029,6 hPa 0,0 l/m 1,2 km/h (1 Bft) NO 34 0 min 0,000 mm 0,0 UV-I 51 W/m -0,4 C 3,8 C 11,3 km/h (2 Bft)
12.03.2016 16:20 3,9 C 74 % 1029,7 hPa 0,0 l/m 0,5 km/h (0 Bft) O-NO 67 0 min 0,000 mm 0,0 UV-I 45 W/m -0,3 C 3,9 C 8,0 km/h (2 Bft)
12.03.2016 16:25 3,9 C 74 % 1029,7 hPa 0,0 l/m 4,1 km/h (1 Bft) O-NO 65 0 min 0,000 mm 0,0 UV-I 38 W/m -0,3 C 3,9 C 14,5 km/h (3 Bft)
12.03.2016 16:30 3,8 C 75 % 1029,7 hPa 0,0 l/m 0,7 km/h (0 Bft) N-NO 33 0 min 0,000 mm 0,0 UV-I 34 W/m -0,2 C 3,8 C 11,3 km/h (2 Bft)
12.03.2016 16:35 3,9 C 75 % 1029,7 hPa 0,0 l/m 0,0 km/h (0 Bft) O-NO 57 0 min 0,000 mm 0,0 UV-I 31 W/m -0,1 C 3,9 C 0,0 km/h (0 Bft)
12.03.2016 16:40 3,9 C 75 % 1029,8 hPa 0,0 l/m 0,0 km/h (0 Bft) NO 49 0 min 0,000 mm 0,0 UV-I 29 W/m -0,1 C 3,9 C 0,0 km/h (0 Bft)
12.03.2016 16:45 3,9 C 75 % 1029,8 hPa 0,0 l/m 0,8 km/h (0 Bft) N 9 0 min 0,000 mm 0,0 UV-I 27 W/m -0,1 C 3,9 C 11,3 km/h (2 Bft)
12.03.2016 16:50 3,9 C 75 % 1029,8 hPa 0,0 l/m 0,3 km/h (0 Bft) N-NO 29 0 min 0,000 mm 0,0 UV-I 26 W/m -0,1 C 3,9 C 11,3 km/h (2 Bft)
12.03.2016 16:55 3,9 C 75 % 1029,8 hPa 0,0 l/m 1,5 km/h (1 Bft) N-NO 19 0 min 0,000 mm 0,0 UV-I 22 W/m -0,1 C 3,9 C 11,3 km/h (2 Bft)
12.03.2016 17:00 3,8 C 74 % 1029,8 hPa 0,0 l/m 3,4 km/h (1 Bft) NO 49 0 min 0,000 mm 0,0 UV-I 21 W/m -0,4 C 3,8 C 11,3 km/h (2 Bft)
12.03.2016 17:05 3,8 C 75 % 1029,9 hPa 0,0 l/m 3,2 km/h (1 Bft) NO 53 0 min 0,025 mm 0,0 UV-I 19 W/m -0,2 C 3,8 C 12,9 km/h (3 Bft)
12.03.2016 17:10 3,8 C 75 % 1029,9 hPa 0,0 l/m 0,6 km/h (0 Bft) O 96 0 min 0,000 mm 0,0 UV-I 19 W/m -0,2 C 3,8 C 8,0 km/h (2 Bft)
12.03.2016 17:15 3,7 C 75 % 1029,9 hPa 0,0 l/m 1,8 km/h (1 Bft) O-NO 66 0 min 0,000 mm 0,0 UV-I 17 W/m -0,3 C 3,7 C 14,5 km/h (3 Bft)
12.03.2016 17:20 3,7 C 75 % 1029,9 hPa 0,0 l/m 5,1 km/h (1 Bft) O-NO 68 0 min 0,000 mm 0,0 UV-I 13 W/m -0,3 C 3,7 C 14,5 km/h (3 Bft)
12.03.2016 17:25 3,7 C 75 % 1029,9 hPa 0,0 l/m 5,5 km/h (1 Bft) O-SO 106 0 min 0,000 mm 0,0 UV-I 12 W/m -0,3 C 3,7 C 14,5 km/h (3 Bft)
12.03.2016 17:30 3,7 C 76 % 1030,1 hPa 0,0 l/m 5,0 km/h (1 Bft) NO 42 0 min 0,000 mm 0,0 UV-I 9 W/m -0,1 C 3,7 C 12,9 km/h (3 Bft)
12.03.2016 17:35 3,6 C 76 % 1030,1 hPa 0,0 l/m 2,6 km/h (1 Bft) NO 44 0 min 0,000 mm 0,0 UV-I 9 W/m -0,2 C 3,6 C 12,9 km/h (3 Bft)
12.03.2016 17:40 3,6 C 76 % 1030,2 hPa 0,0 l/m 4,5 km/h (1 Bft) O-NO 59 0 min 0,000 mm 0,0 UV-I 8 W/m -0,2 C 3,6 C 11,3 km/h (2 Bft)
12.03.2016 17:45 3,6 C 76 % 1030,2 hPa 0,0 l/m 8,8 km/h (2 Bft) O-NO 64 0 min 0,000 mm 0,0 UV-I 7 W/m -0,2 C 1,5 C 16,1 km/h (3 Bft)
12.03.2016 17:50 3,5 C 76 % 1030,2 hPa 0,0 l/m 10,2 km/h (2 Bft) O-NO 73 0 min 0,000 mm 0,0 UV-I 6 W/m -0,3 C 0,3 C 24,1 km/h (4 Bft)
12.03.2016 17:55 3,4 C 76 % 1030,2 hPa 0,0 l/m 8,7 km/h (2 Bft) O-NO 57 0 min 0,000 mm 0,0 UV-I 5 W/m -0,4 C 1,3 C 19,3 km/h (3 Bft)
12.03.2016 18:00 3,4 C 76 % 1030,3 hPa 0,0 l/m 2,2 km/h (1 Bft) N 5 0 min 0,000 mm 0,0 UV-I 1 W/m -0,4 C 3,4 C 8,0 km/h (2 Bft)
12.03.2016 18:05 3,4 C 76 % 1030,3 hPa 0,0 l/m 0,5 km/h (0 Bft) N 360 0 min 0,026 mm 0,0 UV-I 0 W/m -0,4 C 3,4 C 8,0 km/h (2 Bft)
12.03.2016 18:10 3,4 C 76 % 1030,4 hPa 0,0 l/m 0,5 km/h (0 Bft) N-NW 340 0 min 0,000 mm 0,0 UV-I 0 W/m -0,4 C 3,4 C 11,3 km/h (2 Bft)
12.03.2016 18:15 3,4 C 76 % 1030,4 hPa 0,0 l/m 0,8 km/h (0 Bft) NO 46 0 min 0,000 mm 0,0 UV-I 0 W/m -0,4 C 3,4 C 9,7 km/h (2 Bft)
12.03.2016 18:20 3,4 C 76 % 1030,5 hPa 0,0 l/m 2,0 km/h (1 Bft) O-NO 61 0 min 0,000 mm 0,0 UV-I 0 W/m -0,4 C 3,4 C 11,3 km/h (2 Bft)
12.03.2016 18:25 3,3 C 76 % 1030,4 hPa 0,0 l/m 0,3 km/h (0 Bft) O-NO 69 0 min 0,000 mm 0,0 UV-I 0 W/m -0,5 C 3,3 C 6,4 km/h (2 Bft)
12.03.2016 18:30 3,3 C 76 % 1030,4 hPa 0,0 l/m 0,7 km/h (0 Bft) NO 51 0 min 0,000 mm 0,0 UV-I 0 W/m -0,5 C 3,3 C 8,0 km/h (2 Bft)
12.03.2016 18:35 3,3 C 76 % 1030,5 hPa 0,0 l/m 0,8 km/h (0 Bft) NO 50 0 min 0,000 mm 0,0 UV-I 0 W/m -0,5 C 3,3 C 8,0 km/h (2 Bft)
12.03.2016 18:40 3,3 C 76 % 1030,5 hPa 0,0 l/m 0,2 km/h (0 Bft) N-NO 30 0 min 0,000 mm 0,0 UV-I 0 W/m -0,5 C 3,3 C 4,8 km/h (1 Bft)
12.03.2016 18:45 3,3 C 76 % 1030,6 hPa 0,0 l/m 0,8 km/h (0 Bft) NO 45 0 min 0,000 mm 0,0 UV-I 0 W/m -0,5 C 3,3 C 9,7 km/h (2 Bft)
12.03.2016 18:50 3,2 C 76 % 1030,6 hPa 0,0 l/m 0,4 km/h (0 Bft) N-NO 21 0 min 0,000 mm 0,0 UV-I 0 W/m -0,6 C 3,2 C 8,0 km/h (2 Bft)
12.03.2016 18:55 3,2 C 75 % 1030,6 hPa 0,0 l/m 0,2 km/h (0 Bft) O-NO 69 0 min 0,000 mm 0,0 UV-I 0 W/m -0,8 C 3,2 C 6,4 km/h (2 Bft)
12.03.2016 19:00 3,2 C 75 % 1030,7 hPa 0,0 l/m 2,0 km/h (1 Bft) O 80 0 min 0,000 mm 0,0 UV-I 0 W/m -0,8 C 3,2 C 11,3 km/h (2 Bft)
12.03.2016 19:05 3,2 C 75 % 1030,7 hPa 0,0 l/m 0,4 km/h (0 Bft) N-NO 33 0 min 0,000 mm 0,0 UV-I 0 W/m -0,8 C 3,2 C 8,0 km/h (2 Bft)
12.03.2016 19:10 3,2 C 75 % 1030,7 hPa 0,0 l/m 0,0 km/h (0 Bft) NO 51 0 min 0,000 mm 0,0 UV-I 0 W/m -0,8 C 3,2 C 0,0 km/h (0 Bft)
12.03.2016 19:15 3,2 C 75 % 1030,7 hPa 0,0 l/m 0,9 km/h (0 Bft) NO 42 0 min 0,000 mm 0,0 UV-I 0 W/m -0,8 C 3,2 C 19,3 km/h (3 Bft)
12.03.2016 19:20 3,2 C 75 % 1030,8 hPa 0,0 l/m 2,1 km/h (1 Bft) NO 49 0 min 0,000 mm 0,0 UV-I 0 W/m -0,8 C 3,2 C 11,3 km/h (2 Bft)
12.03.2016 19:25 3,2 C 75 % 1030,9 hPa 0,0 l/m 0,0 km/h (0 Bft) N 5 0 min 0,000 mm 0,0 UV-I 0 W/m -0,8 C 3,2 C 0,0 km/h (0 Bft)
12.03.2016 19:30 3,2 C 75 % 1030,9 hPa 0,0 l/m 0,8 km/h (0 Bft) N-NO 27 0 min 0,000 mm 0,0 UV-I 0 W/m -0,8 C 3,2 C 9,7 km/h (2 Bft)
12.03.2016 19:35 3,2 C 75 % 1030,9 hPa 0,0 l/m 0,0 km/h (0 Bft) NO 55 0 min 0,000 mm 0,0 UV-I 0 W/m -0,8 C 3,2 C 1,6 km/h (1 Bft)
12.03.2016 19:40 3,2 C 75 % 1031,0 hPa 0,0 l/m 0,0 km/h (0 Bft) NO 37 0 min 0,000 mm 0,0 UV-I 0 W/m -0,8 C 3,2 C 0,0 km/h (0 Bft)
12.03.2016 19:45 3,1 C 75 % 1031,0 hPa 0,0 l/m 2,1 km/h (1 Bft) NO 46 0 min 0,000 mm 0,0 UV-I 0 W/m -0,9 C 3,1 C 12,9 km/h (3 Bft)
12.03.2016 19:50 3,1 C 75 % 1031,1 hPa 0,0 l/m 1,3 km/h (1 Bft) N-NO 17 0 min 0,000 mm 0,0 UV-I 0 W/m -0,9 C 3,1 C 8,0 km/h (2 Bft)
12.03.2016 19:55 3,1 C 75 % 1031,1 hPa 0,0 l/m 2,2 km/h (1 Bft) O-NO 57 0 min 0,000 mm 0,0 UV-I 0 W/m -0,9 C 3,1 C 12,9 km/h (3 Bft)
12.03.2016 20:00 3,1 C 76 % 1031,1 hPa 0,0 l/m 0,3 km/h (0 Bft) NO 54 0 min 0,000 mm 0,0 UV-I 0 W/m -0,7 C 3,1 C 6,4 km/h (2 Bft)
12.03.2016 20:05 3,1 C 76 % 1031,1 hPa 0,0 l/m 2,7 km/h (1 Bft) NO 41 0 min 0,025 mm 0,0 UV-I 0 W/m -0,7 C 3,1 C 12,9 km/h (3 Bft)
12.03.2016 20:10 3,0 C 75 % 1031,1 hPa 0,0 l/m 2,6 km/h (1 Bft) O-NO 63 0 min 0,000 mm 0,0 UV-I 0 W/m -1,0 C 3,0 C 12,9 km/h (3 Bft)
12.03.2016 20:15 3,0 C 76 % 1031,1 hPa 0,0 l/m 1,9 km/h (1 Bft) O-NO 59 0 min 0,000 mm 0,0 UV-I 0 W/m -0,8 C 3,0 C 11,3 km/h (2 Bft)
12.03.2016 20:20 3,0 C 75 % 1031,1 hPa 0,0 l/m 1,1 km/h (1 Bft) O-NO 74 0 min 0,000 mm 0,0 UV-I 0 W/m -1,0 C 3,0 C 9,7 km/h (2 Bft)
12.03.2016 20:25 2,9 C 75 % 1031,2 hPa 0,0 l/m 4,5 km/h (1 Bft) NO 54 0 min 0,000 mm 0,0 UV-I 0 W/m -1,1 C 2,9 C 14,5 km/h (3 Bft)
12.03.2016 20:30 2,9 C 75 % 1031,2 hPa 0,0 l/m 7,2 km/h (2 Bft) O-NO 61 0 min 0,000 mm 0,0 UV-I 0 W/m -1,1 C 2,1 C 17,7 km/h (3 Bft)
12.03.2016 20:35 2,9 C 75 % 1031,2 hPa 0,0 l/m 2,8 km/h (1 Bft) NO 54 0 min 0,000 mm 0,0 UV-I 0 W/m -1,1 C 2,9 C 12,9 km/h (3 Bft)
12.03.2016 20:40 2,9 C 75 % 1031,3 hPa 0,0 l/m 6,4 km/h (2 Bft) O-NO 61 0 min 0,000 mm 0,0 UV-I 0 W/m -1,1 C 2,9 C 16,1 km/h (3 Bft)
12.03.2016 20:45 2,9 C 74 % 1031,3 hPa 0,0 l/m 5,7 km/h (1 Bft) O-NO 70 0 min 0,000 mm 0,0 UV-I 0 W/m -1,3 C 2,9 C 16,1 km/h (3 Bft)
12.03.2016 20:50 2,9 C 75 % 1031,3 hPa 0,0 l/m 2,1 km/h (1 Bft) O-NO 61 0 min 0,000 mm 0,0 UV-I 0 W/m -1,1 C 2,9 C 12,9 km/h (3 Bft)
12.03.2016 20:55 2,9 C 74 % 1031,3 hPa 0,0 l/m 2,8 km/h (1 Bft) NO 51 0 min 0,000 mm 0,0 UV-I 0 W/m -1,3 C 2,9 C 14,5 km/h (3 Bft)
12.03.2016 21:00 2,8 C 74 % 1031,4 hPa 0,0 l/m 2,1 km/h (1 Bft) NO 48 0 min 0,000 mm 0,0 UV-I 0 W/m -1,4 C 2,8 C 12,9 km/h (3 Bft)
12.03.2016 21:05 2,8 C 74 % 1031,3 hPa 0,0 l/m 1,5 km/h (1 Bft) O-NO 67 0 min 0,026 mm 0,0 UV-I 0 W/m -1,4 C 2,8 C 9,7 km/h (2 Bft)
12.03.2016 21:10 2,8 C 75 % 1031,3 hPa 0,0 l/m 0,0 km/h (0 Bft) O-NO 63 0 min 0,000 mm 0,0 UV-I 0 W/m -1,2 C 2,8 C 0,0 km/h (0 Bft)
12.03.2016 21:15 2,8 C 75 % 1031,3 hPa 0,0 l/m 2,7 km/h (1 Bft) NO 45 0 min 0,000 mm 0,0 UV-I 0 W/m -1,2 C 2,8 C 11,3 km/h (2 Bft)
12.03.2016 21:20 2,8 C 76 % 1031,3 hPa 0,0 l/m 0,0 km/h (0 Bft) O-NO 57 0 min 0,000 mm 0,0 UV-I 0 W/m -1,0 C 2,8 C 1,6 km/h (1 Bft)
12.03.2016 21:25 2,8 C 76 % 1031,4 hPa 0,0 l/m 0,9 km/h (0 Bft) O-NO 57 0 min 0,000 mm 0,0 UV-I 0 W/m -1,0 C 2,8 C 8,0 km/h (2 Bft)
12.03.2016 21:30 2,7 C 76 % 1031,4 hPa 0,0 l/m 2,8 km/h (1 Bft) O-NO 58 0 min 0,000 mm 0,0 UV-I 0 W/m -1,1 C 2,7 C 12,9 km/h (3 Bft)
12.03.2016 21:35 2,7 C 76 % 1031,4 hPa 0,0 l/m 0,9 km/h (0 Bft) NO 42 0 min 0,000 mm 0,0 UV-I 0 W/m -1,1 C 2,7 C 9,7 km/h (2 Bft)
12.03.2016 21:40 2,7 C 77 % 1031,3 hPa 0,0 l/m 1,7 km/h (1 Bft) NO 51 0 min 0,000 mm 0,0 UV-I 0 W/m -0,9 C 2,7 C 11,3 km/h (2 Bft)
12.03.2016 21:45 2,7 C 77 % 1031,3 hPa 0,0 l/m 0,4 km/h (0 Bft) O-NO 71 0 min 0,000 mm 0,0 UV-I 0 W/m -0,9 C 2,7 C 6,4 km/h (2 Bft)
12.03.2016 21:50 2,7 C 77 % 1031,4 hPa 0,0 l/m 2,1 km/h (1 Bft) NO 45 0 min 0,000 mm 0,0 UV-I 0 W/m -0,9 C 2,7 C 12,9 km/h (3 Bft)
12.03.2016 21:55 2,7 C 78 % 1031,4 hPa 0,0 l/m 3,7 km/h (1 Bft) O-NO 59 0 min 0,000 mm 0,0 UV-I 0 W/m -0,7 C 2,7 C 12,9 km/h (3 Bft)
12.03.2016 22:00 2,6 C 78 % 1031,3 hPa 0,0 l/m 4,6 km/h (1 Bft) O-NO 66 0 min 0,000 mm 0,0 UV-I 0 W/m -0,8 C 2,6 C 14,5 km/h (3 Bft)
12.03.2016 22:05 2,6 C 79 % 1031,4 hPa 0,0 l/m 5,3 km/h (1 Bft) NO 52 0 min 0,025 mm 0,0 UV-I 0 W/m -0,7 C 2,6 C 14,5 km/h (3 Bft)
12.03.2016 22:10 2,6 C 79 % 1031,4 hPa 0,0 l/m 4,3 km/h (1 Bft) O 88 0 min 0,000 mm 0,0 UV-I 0 W/m -0,7 C 2,6 C 12,9 km/h (3 Bft)
12.03.2016 22:15 2,5 C 79 % 1031,4 hPa 0,0 l/m 6,7 km/h (2 Bft) O 82 0 min 0,000 mm 0,0 UV-I 0 W/m -0,8 C 2,2 C 20,9 km/h (4 Bft)
12.03.2016 22:20 2,4 C 79 % 1031,4 hPa 0,0 l/m 11,0 km/h (2 Bft) O-NO 57 0 min 0,000 mm 0,0 UV-I 0 W/m -0,9 C -1,5 C 20,9 km/h (4 Bft)
12.03.2016 22:25 2,3 C 79 % 1031,4 hPa 0,0 l/m 14,2 km/h (3 Bft) N-NO 26 0 min 0,000 mm 0,0 UV-I 0 W/m -1,0 C -3,7 C 25,7 km/h (4 Bft)
12.03.2016 22:30 2,2 C 79 % 1031,4 hPa 0,0 l/m 12,7 km/h (3 Bft) NO 51 0 min 0,000 mm 0,0 UV-I 0 W/m -1,1 C -2,9 C 22,5 km/h (4 Bft)
12.03.2016 22:35 2,2 C 79 % 1031,5 hPa 0,0 l/m 7,6 km/h (2 Bft) NO 47 0 min 0,000 mm 0,0 UV-I 0 W/m -1,1 C 1,0 C 16,1 km/h (3 Bft)
12.03.2016 22:40 2,2 C 79 % 1031,4 hPa 0,0 l/m 5,0 km/h (1 Bft) O 90 0 min 0,000 mm 0,0 UV-I 0 W/m -1,1 C 2,2 C 16,1 km/h (3 Bft)
12.03.2016 22:45 2,1 C 79 % 1031,5 hPa 0,0 l/m 6,5 km/h (2 Bft) O-NO 71 0 min 0,000 mm 0,0 UV-I 0 W/m -1,2 C 2,0 C 14,5 km/h (3 Bft)
12.03.2016 22:50 2,1 C 80 % 1031,4 hPa 0,0 l/m 4,0 km/h (1 Bft) O-NO 67 0 min 0,000 mm 0,0 UV-I 0 W/m -1,0 C 2,1 C 16,1 km/h (3 Bft)
12.03.2016 22:55 2,1 C 79 % 1031,4 hPa 0,0 l/m 7,7 km/h (2 Bft) N-NO 26 0 min 0,000 mm 0,0 UV-I 0 W/m -1,2 C 0,8 C 16,1 km/h (3 Bft)
12.03.2016 23:00 2,0 C 80 % 1031,4 hPa 0,0 l/m 6,0 km/h (2 Bft) O-NO 64 0 min 0,000 mm 0,0 UV-I 0 W/m -1,1 C 2,0 C 12,9 km/h (3 Bft)
12.03.2016 23:05 2,0 C 79 % 1031,4 hPa 0,0 l/m 7,7 km/h (2 Bft) O 92 0 min 0,025 mm 0,0 UV-I 0 W/m -1,2 C 0,7 C 14,5 km/h (3 Bft)
12.03.2016 23:10 2,0 C 80 % 1031,4 hPa 0,0 l/m 4,0 km/h (1 Bft) NO 54 0 min 0,000 mm 0,0 UV-I 0 W/m -1,1 C 2,0 C 11,3 km/h (2 Bft)
12.03.2016 23:15 1,9 C 79 % 1031,3 hPa 0,0 l/m 11,1 km/h (2 Bft) O-SO 118 0 min 0,000 mm 0,0 UV-I 0 W/m -1,3 C -2,2 C 22,5 km/h (4 Bft)
12.03.2016 23:20 1,9 C 79 % 1031,3 hPa 0,0 l/m 10,6 km/h (2 Bft) NO 53 0 min 0,000 mm 0,0 UV-I 0 W/m -1,3 C -1,8 C 17,7 km/h (3 Bft)
12.03.2016 23:25 1,9 C 79 % 1031,3 hPa 0,0 l/m 8,7 km/h (2 Bft) O-NO 67 0 min 0,000 mm 0,0 UV-I 0 W/m -1,3 C -0,3 C 16,1 km/h (3 Bft)
12.03.2016 23:30 1,9 C 79 % 1031,2 hPa 0,0 l/m 8,0 km/h (2 Bft) NO 34 0 min 0,000 mm 0,0 UV-I 0 W/m -1,3 C 0,3 C 16,1 km/h (3 Bft)
12.03.2016 23:35 1,9 C 79 % 1031,3 hPa 0,0 l/m 6,7 km/h (2 Bft) O-NO 65 0 min 0,000 mm 0,0 UV-I 0 W/m -1,3 C 1,6 C 14,5 km/h (3 Bft)
12.03.2016 23:40 1,8 C 80 % 1031,2 hPa 0,0 l/m 2,5 km/h (1 Bft) O-NO 58 0 min 0,000 mm 0,0 UV-I 0 W/m -1,3 C 1,8 C 8,0 km/h (2 Bft)
12.03.2016 23:45 1,8 C 79 % 1031,1 hPa 0,0 l/m 5,7 km/h (1 Bft) N-NO 30 0 min 0,000 mm 0,0 UV-I 0 W/m -1,4 C 1,8 C 16,1 km/h (3 Bft)
12.03.2016 23:50 1,8 C 79 % 1031,1 hPa 0,0 l/m 2,5 km/h (1 Bft) NO 41 0 min 0,000 mm 0,0 UV-I 0 W/m -1,4 C 1,8 C 12,9 km/h (3 Bft)
12.03.2016 23:55 1,8 C 79 % 1031,1 hPa 0,0 l/m 4,8 km/h (1 Bft) O-NO 62 0 min 0,000 mm 0,0 UV-I 0 W/m -1,4 C 1,8 C 14,5 km/h (3 Bft)
_ Min-Zeit 23:35 00:00 01:35 - 00:45 - - - - - - 23:45 22:25 02:05
Minimum _ 1,8 C 71 % 1028,5 hPa - 0,0 km/h (0 Bft) - - - - - - -1,4 C -3,7 C 0,0 km/h (0 Bft)
_ Max-Zeit 15:50 03:20 22:35 00:00 22:25 - - 00:00 12:05 12:05 12:05 03:20 16:20 22:25
Maximum _ 3,9 C 80 % 1031,5 hPa 0,0 l/m 14,2 km/h
N-NO (3 Bft)
- - 0 min 0,051 mm 1,1 UV-I 114 W/m 0,1 C 3,9 C 25,7 km/h
NO (4 Bft)
Durchschnitt _ 3,0 C 76 % 1029,8 hPa #0,0 l/m 3,5 km/h (1 Bft) O-NO - #0 min. #0,533 mm 0,8 UV-I 58 W/m -0,7 C 2,6 C 11,0 km/h (2 Bft)